Location: Andershausen
(51.8462°N, 9.8595°E)
Time: 00:55:36
(UTC+00:00)

PSLV R/B - Pass Details

Date: 18 November 2025
Orbit: 561 x 589 km, 98.0° (Epoch: 13 December)

Event Time Altitude Azimuth Distance (km) Brightness Sun altitude
Rises 17:50:51 0° 171° (S) 2,758 6.8 -22.0°
Reaches altitude 10° 17:53:00 10° 174° (S) 1,862 6.0 -22.4°
Maximum altitude 17:57:01 67° 257° (WSW) 618 3.7 -23.0°
Drops below altitude 10° 18:01:02 10° 341° (NNW) 1,868 6.2 -23.6°
Sets 18:03:11 0° 344° (NNW) 2,768 7.1 -23.9°
